Regional Weather Roundup
Issued by NWS

Home | Current Version | Previous Version | Graphics & Text | Print | Product List | Glossary On
Versions: 1 2 3 4 5 6 7 8 9 10 11 12 13 14 15 16 17 18 19 20 21 22 23 24 25 26 27 28 29 30 31 32 33 34 35 36 37 38 39 40 41 42 43 44 45 46 47 48 49 50
000
ASUS43 KMKX 191821
RWRWI

WISCONSIN REGIONAL WEATHER ROUNDUP
NATIONAL WEATHER SERVICE MILWAUKEE/SULLIVAN WI
100 PM CDT FRI SEP 19 2014

NOTE: "FAIR" INDICATES FEW OR NO CLOUDS BELOW 12,000 FEET WITH NO
SIGNIFICANT WEATHER AND/OR OBSTRUCTIONS TO VISIBILITY.

WIZ001-002-006>008-014>016-023>028-191900-
NORTHWEST WISCONSIN

CITY           SKY/WX    TMP DP  RH WIND       PRES   REMARKS
SUPERIOR ARPT  CLOUDY    65  57  74 SW12      29.73S
6HR MIN TEMP:  47; 6HR MAX TEMP:  66;

ASHLAND        CLOUDY    69  55  60 S17G26    29.73F
6HR MIN TEMP:  56; 6HR MAX TEMP:  69;

HAYWARD        CLOUDY    67  55  65 S21G31    29.78F
6HR MIN TEMP:  57; 6HR MAX TEMP:  67;

SIREN          CLOUDY    71  57  61 S15G24    29.75S
6HR MIN TEMP:  57; 6HR MAX TEMP:  71;

RICE LAKE      CLOUDY    66  55  67 S17G26    29.82F
6HR MIN TEMP:  51; 6HR MAX TEMP:  66;

LADYSMITH      PTSUNNY   67  55  65 S14G29    29.83F
6HR MIN TEMP:  53; 6HR MAX TEMP:  67;

EAU CLAIRE     PTSUNNY   69  55  60 S18G36    29.83F
6HR MIN TEMP:  54; 6HR MAX TEMP:  71;

MENOMONIE      MOCLDY    70  56  60 SE20G26   29.81F
6HR MIN TEMP:  52; 6HR MAX TEMP:  70;

NEW RICHMOND   PTSUNNY   71  56  59 S23G30    29.77F
6HR MIN TEMP:  56; 6HR MAX TEMP:  71;

OSCEOLA        PTSUNNY   72  58  62 S18G26    29.78F
6HR MIN TEMP:  58; 6HR MAX TEMP:  72;

$$

WIZ003>005-009-010-017-018-191900-
NORTH CENTRAL WISCONSIN

CITY           SKY/WX    TMP DP  RH WIND       PRES   REMARKS
WOODRUFF       CLOUDY    64  50  60 S23G31    29.87F
6HR MIN TEMP:  53; 6HR MAX TEMP:  65;

RHINELANDER    CLOUDY    64  50  60 S14G26    29.92F
6HR MIN TEMP:  49; 6HR MAX TEMP:  64;

EAGLE RIVER    CLOUDY    64  48  57 S13G21    29.89F
6HR MIN TEMP:  49; 6HR MAX TEMP:  64;

LAND O LAKES   CLOUDY    63  48  59 S13G23    29.88F
6HR MIN TEMP:  51; 6HR MAX TEMP:  63;

PHILLIPS       PTSUNNY   64  52  66 S22G29    29.82F
TOMAHAWK       PTSUNNY   64  51  63 S3        29.91F
6HR MIN TEMP:  49; 6HR MAX TEMP:  66;

MEDFORD        MOSUNNY   66  52  61 S18G28    29.91F
6HR MIN TEMP:  48; 6HR MAX TEMP:  66;

MERRILL        PTSUNNY   68  53  58 S14G22    29.92F
6HR MIN TEMP:  49; 6HR MAX TEMP:  68;

$$

WIZ029-030-035-036-043>047-191900-
CENTRAL WISCONSIN

CITY           SKY/WX    TMP DP  RH WIND       PRES   REMARKS
WAUSAU         PTSUNNY   67  51  56 S21G31    29.93F
6HR MIN TEMP:  50; 6HR MAX TEMP:  67;

MOSINEE        SUNNY     66  54  63 S20G26    29.96F
MARSHFIELD     MOSUNNY   70  54  56 S22G30    29.92F
6HR MIN TEMP:  51; 6HR MAX TEMP:  70;

STEVENS POINT  MOSUNNY   68  49  51 S21G28    29.96F
6HR MIN TEMP:  47; 6HR MAX TEMP:  68;

WAUPACA        MOSUNNY   71  52  50 S21       29.98F
6HR MIN TEMP:  51; 6HR MAX TEMP:  72;

WAUTOMA        MOSUNNY   72  52  49 S17G25    29.99F
6HR MIN TEMP:  53; 6HR MAX TEMP:  72;

WISC RAPIDS    MOSUNNY   71  51  49 S12G29    29.96F
6HR MIN TEMP:  50; 6HR MAX TEMP:  72;

CAMP DOUGLAS   PTSUNNY   70  55  60 S13G24    29.96F
$$

WIZ011>013-019>022-031-037>040-048>050-191900-
NORTHEAST WISCONSIN

CITY           SKY/WX    TMP DP  RH WIND       PRES   REMARKS
ANTIGO         PTSUNNY   65  53  64 S20       29.96F
6HR MIN TEMP:  47; 6HR MAX TEMP:  65;

STURGEON BAY   MOSUNNY   64  57  77 S21G29    30.01F
6HR MIN TEMP:  55; 6HR MAX TEMP:  64;

GREEN BAY      MOSUNNY   70  52  52 S18G28    30.01F
6HR MIN TEMP:  52; 6HR MAX TEMP:  70;

MANITOWOC      SUNNY     65  58  78 S17G30    30.05F
6HR MIN TEMP:  57; 6HR MAX TEMP:  66;

APPLETON       MOSUNNY   70  48  46 SW20G28   30.02F
CLINTONVILLE   PTSUNNY   70  52  52 S17G25    29.98F
OSHKOSH        MOSUNNY   72  54  53 S20       30.01F
6HR MIN TEMP:  54; 6HR MAX TEMP:  72;

$$

WIZ032>034-041-042-053>061-191900-
SOUTHWEST WISCONSIN

CITY           SKY/WX    TMP DP  RH WIND       PRES   REMARKS
LA CROSSE      MOSUNNY   72  55  55 S23G31    29.91F
6HR MIN TEMP:  56; 6HR MAX TEMP:  73;

SPARTA         MOSUNNY   72  51  48 S21G28    29.94F
6HR MIN TEMP:  54; 6HR MAX TEMP:  72;

VIROQUA        FAIR      70  54  57 S16G25    29.97F
6HR MIN TEMP:  50; 6HR MAX TEMP:  70;

BOSCOBEL       SUNNY     74  53  48 S17G24    29.99F
6HR MIN TEMP:  51; 6HR MAX TEMP:  74;

PRAIRIE DU CHI SUNNY     72  53  51 S13G18    29.98F
6HR MIN TEMP:  51; 6HR MAX TEMP:  72;

PLATTEVILLE    FAIR      71  55  55 S18G26    30.03F
6HR MIN TEMP:  49; 6HR MAX TEMP:  71;

$$

WIZ056-057-062-063-064-067-068-191900-
SOUTH CENTRAL WISCONSIN

CITY           SKY/WX    TMP DP  RH WIND       PRES   REMARKS
BARABOO/DELLS  SUNNY     71  50  48 SW20G28   30.00F
6HR MIN TEMP:  50; 6HR MAX TEMP:  71;

LONE ROCK      SUNNY     76  54  46 S14G25    30.00F
6HR MIN TEMP:  52; 6HR MAX TEMP:  76;

WATERTOWN      SUNNY     71  51  48 S17       30.05F
6HR MIN TEMP:  54; 6HR MAX TEMP:  71;

MADISON        MOSUNNY   71  51  49 S17G25    30.03F
6HR MIN TEMP:  56; 6HR MAX TEMP:  72;

MIDDLETON      FAIR      72  50  45 S18G25    30.02F
6HR MIN TEMP:  56; 6HR MAX TEMP:  72;

MONROE         SUNNY     70  52  52 S20G25    30.06F
JANESVILLE     SUNNY     72  52  49 S14G20    30.09S
$$

WIZ051-052-058>065-066-070>072-191900-
SOUTHEAST WISCONSIN

CITY           SKY/WX    TMP DP  RH WIND       PRES   REMARKS
MILWAUKEE      MOSUNNY   72  50  45 S16       30.08F
6HR MIN TEMP:  56; 6HR MAX TEMP:  72;

WAUKESHA       SUNNY     70  48  46 S15       30.09F
MILWAUKEE/TIMM SUNNY     72  46  40 S20G25    30.08F
RACINE         SUNNY     69  54  58 S14       30.11F
6HR MIN TEMP:  58; 6HR MAX TEMP:  69;

BURLINGTON     SUNNY     71  49  45 S16G24    30.08F
6HR MIN TEMP:  48; 6HR MAX TEMP:  71;

KENOSHA        SUNNY     72  51  47 S18G25    30.10F
6HR MIN TEMP:  50; 6HR MAX TEMP:  72;

FOND DU LAC    MOSUNNY   71  51  49 S17G29    30.03F
6HR MIN TEMP:  52; 6HR MAX TEMP:  72;

SHEBOYGAN      SUNNY     70  56  61 S14       30.06F
6HR MIN TEMP:  46; 6HR MAX TEMP:  70;

WEST BEND      MOSUNNY   72  50  46 S13G20    30.05F
JUNEAU         SUNNY     71  50  48 S18G26    30.06F
6HR MIN TEMP:  54; 6HR MAX TEMP:  71;

$$

LSZ147-162-191900-
LAKE SUPERIOR

STATION/POSITION TIME  TEMP    WIND        PRES    WAVE
                       AIR SEA DIR/SP/G            HT/PER
                 (UTC) (F)     (DEG/KT/KT) (MB)    (FT/S)
W MID LAKE BUOY  1750   54 48  170/ 16/ 19 1005.0F   2/ 4
DEVILS ISLAND    1800   60     230/ 13/ 16 1006.9R
PORT WING        1700   65     180/ 18/ 25 1004.1F
SAXON HARBOR     1740   67     180/ 14/ 24 1004.4F
$$

LMZ867-665-643>646-191900-
LAKE MICHIGAN

STATION/POSITION TIME  TEMP    WIND        PRES    WAVE
                       AIR SEA DIR/SP/G            HT/PER
                 (UTC) (F)     (DEG/KT/KT) (MB)    (FT/S)
N MID LAKE BUOY  1750   58 58  200/ 23/ 27 1017.3F   5/ 6
NORTHPORT PIER   1700   60     150/ 12/ 20 1017.6F
SISTER BAY       1712   65     200/ 22/ 27   N/A
KEWAUNEE LAKESHO 1800   57     170/ 16/ 19 1016.7F
SHEBOYGAN LAKESH 1800   57 52  180/ 17/ 18 1018.4F
PORT WASHINGTON  1700   65     200/  6/ 11 1019.6F
ATWATER BUOY     1800   61     160/ 16/ 19 1019.4F
MILWAUKEE LAKESH 1800   68     200/ 19/ 23   N/A
S MID LAKE BUOY  1750   63 65  180/ 17/ 21 1020.1F   4/ 5
KENOSHA   LAKESH 1800   62     160/ 15/ 17 1018.6F
$$

TC  - TEMPERATURE IN CELSIUS
VSB - VISIBILITY IN STATUTE MILES
WCI - WIND CHILL INDEX
HX  - HEAT INDEX



USA.gov is the U.S. government's official web portal to all federal, state and local government web resources and services.